星链-36909(STARLINK-36909)

导读

STARLINK-36909(NORAD编号67946)是美国SpaceX公司星链(Starlink)星座的一颗低轨互联网卫星,隶属于全球规模最大的低轨卫星互联网项目。星链项目旨在通过大规模低轨卫星组网,为全球提供高速低延迟的宽带互联网接入服务,尤其覆盖传统网络难以抵达的偏远地区、海洋及空域。该卫星运行于近地轨道,采用紧凑平板设计适配密集发射,依托SpaceX可复用火箭技术低成本部署,通过星间链路优化网络传输,助力实现全球网络覆盖,同时也推动了全球卫星互联网产业发展,不过也引发了太空交通与天文观测相关讨论。

Basic Information
目录编号:
67946
目录名称:
STARLINK-36909
国际标识:
2026-037Q
轨道中心:
EARTH
卫星名称:
星链-36909
卫星全名:
星链-36909(STARLINK-36909)
卫星状态:
在轨 (已飞行193 天)
发射日期:
2026-02-24 UTC
国别 :
美国 (US)
星等 :
--
Orbit Information
数据来源 国际轨道数据
星历时间: 2026-09-05T15:15:20+0800
6小时前
查看轨道信息
半长轴: 6861.182km
偏心率: 0.0001402
轨道倾角: 43.000°
近地点辐角 272.929°
升交点赤经 256.046°
平近点角 87.140°
近地点: 482.083km
远地点: 484.007km
周期: 94.267分钟
每日圈数: 15.275816
Detailed Information
固有亮度:
5
最大亮度:
2.5
卫星平台:
Starlink V1.0
覆盖范围:
全球
运营商:
太空探索技术公司
运营商所在国:
美国
制造商(研发单位):
太空探索技术公司
制造商所在国:
美国
使用方式:
暂无
Satellite Introduction
Starlink 计划是 SpaceX 推出的全球卫星互联网项目,通过发射低轨道卫星,为全球尤其是偏远地区提供高速、低延迟的互联网服务。自 2019 年起,Starlink 已部署数千颗卫星,旨在缩小全球数字鸿沟,推动互联网普及。该项目还为军事、航空等行业提供通信支持,带来广泛经济效益。
2D Orbit Map
3D Orbit Map
Orbit Altitude Analysis Chart
Orbit Inclination Analysis Chart
Orbit Comprehensive Analysis Chart
View Comprehensive Chart
Conjunction Data List
Event ID Objects TCA Miss Dist (km) Collision Risk Probability Collision Risk Index (CRI) Action
CDM_260908-021005-918006-794621
2026-09-08T
02:10:01+0000
0.575 km
远距离
9.794102E-5 中风险 0.75
CDM_260908-034405-918006-794621
2026-09-08T
03:44:10+0000
0.604 km
远距离
8.551639E-5 中风险 0.74
CDM_260907-170205-744406-794621
2026-09-07T
17:02:47+0000
0.792 km
远距离
3.222629E-5 中风险 0.65
CDM_260905-145405-950006-794621
2026-09-05T
14:54:33+0000
1.351 km
极远距离
6.488766E-6 低风险 0.51
CDM_260908-003505-918006-794621
2026-09-08T
00:35:51+0000
1.605 km
极远距离
3.525745E-6 低风险 0.46
CDM_260907-100905-747606-794621
2026-09-07T
10:09:11+0000
1.898 km
极远距离
2.546939E-6 低风险 0.43
CDM_260907-152805-744406-794621
2026-09-07T
15:28:38+0000
2.101 km
极远距离
1.480488E-6 低风险 0.38
CDM_260907-230105-918006-794621
2026-09-07T
23:01:42+0000
2.651 km
极远距离
1.098168E-6 低风险 0.36
CDM_260905-171505-950006-794621
2026-09-05T
17:15:45+0000
2.872 km
极远距离
1.029971E-6 低风险 0.35
CDM_260907-115305-293906-794621
POEM (52939)
2026-09-07T
11:53:20+0000
2.668 km
极远距离
8.90827E-7 极低风险 0.34